,,,PA_Meas_PMT16A,,PR_Meas_QMR101_102,,RH_Meas_QMH101,,SR_Meas_QMS101,,TA_Meas_QMH101,,GenWind,,GenWind,
date,time,status,PA,status,PR,status,RH,status,SR,status,TA,status,DirAvg,status,SpdAvg,
2009-05-17, 00:00:04,VALID,1009.17,VALID,0,VALID,88.7943,VALID,0,VALID,24.686,VALID,33,VALID,0,
2009-05-17, 00:01:04,VALID,1009.17,VALID,0,VALID,88.7561,VALID,0,VALID,24.6879,VALID,33,VALID,0,
2009-05-17, 00:02:04,VALID,1009.14,VALID,0,VALID,88.7714,VALID,0,VALID,24.6666,VALID,33,VALID,0,
2009-05-17, 00:03:04,VALID,1009.17,VALID,0,VALID,88.8095,VALID,0,VALID,24.6666,VALID,33,VALID,0,
2009-05-17, 00:04:04,VALID,1009.16,VALID,0,VALID,88.8324,VALID,0,VALID,24.6666,VALID,33,VALID,0,
2009-05-17, 00:05:04,VALID,1009.16,VALID,0,VALID,88.8553,VALID,0,VALID,24.6471,VALID,33,VALID,0,
2009-05-17, 00:06:04,VALID,1009.2,VALID,0,VALID,88.8705,VALID,0.105969,VALID,24.6471,VALID,33,VALID,0,
2009-05-17, 00:07:04,VALID,1009.2,VALID,0,VALID,88.901,VALID,0,VALID,24.6276,VALID,33,VALID,0,
2009-05-17, 00:08:04,VALID,1009.22,VALID,0,VALID,88.901,VALID,0,VALID,24.6489,VALID,33,VALID,0,
2009-05-17, 00:09:04,VALID,1009.24,VALID,0,VALID,88.9315,VALID,0,VALID,24.6471,VALID,33,VALID,0,
2009-05-17, 00:10:04,VALID,1009.2,VALID,0,VALID,88.9468,VALID,0,VALID,24.6471,VALID,33,VALID,0,
2009-05-17, 00:11:04,VALID,1009.22,VALID,0,VALID,88.962,VALID,0,VALID,24.6471,VALID,33,VALID,0,
2009-05-17, 00:12:04,VALID,1009.24,VALID,0,VALID,88.9392,VALID,0,VALID,24.6081,VALID,33,VALID,0,
2009-05-17, 00:13:04,VALID,1009.22,VALID,0,VALID,88.962,VALID,0,VALID,24.6276,VALID,69,VALID,0,
2009-05-17, 00:14:04,VALID,1009.22,VALID,0,VALID,88.9392,VALID,0,VALID,24.6294,VALID,69,VALID,0,
2009-05-17, 00:15:04,VALID,1009.2,VALID,0,VALID,88.9315,VALID,0.105969,VALID,24.6081,VALID,72,VALID,0,
2009-05-17, 00:16:04,VALID,1009.25,VALID,0,VALID,88.9315,VALID,0,VALID,24.6276,VALID,72,VALID,0,
2009-05-17, 00:17:04,VALID,1009.22,VALID,0,VALID,88.9468,VALID,0,VALID,24.6276,VALID,72,VALID,0,
2009-05-17, 00:18:04,VALID,1009.22,VALID,0,VALID,88.9925,VALID,0.105969,VALID,24.6276,VALID,72,VALID,0,
2009-05-17, 00:19:04,VALID,1009.22,VALID,0,VALID,88.9697,VALID,0,VALID,24.6276,VALID,72,VALID,0,
2009-05-17, 00:20:04,VALID,1009.2,VALID,0,VALID,88.962,VALID,0,VALID,24.6294,VALID,72,VALID,0,
2009-05-17, 00:21:04,VALID,1009.2,VALID,0,VALID,88.9697,VALID,0,VALID,24.6294,VALID,72,VALID,0,
2009-05-17, 00:22:04,VALID,1009.17,VALID,0,VALID,88.962,VALID,0,VALID,24.6276,VALID,72,VALID,0,
2009-05-17, 00:23:04,VALID,1009.14,VALID,0,VALID,88.9468,VALID,0,VALID,24.6081,VALID,72,VALID,0,
2009-05-17, 00:24:04,VALID,1009.13,VALID,0,VALID,88.9239,VALID,0,VALID,24.6081,VALID,72,VALID,0,
2009-05-17, 00:25:04,VALID,1009.1,VALID,0,VALID,88.9239,VALID,0,VALID,24.5886,VALID,72,VALID,0,
2009-05-17, 00:26:04,VALID,1009.05,VALID,0,VALID,88.9315,VALID,0,VALID,24.5886,VALID,72,VALID,0,
2009-05-17, 00:27:04,VALID,1009.05,VALID,0,VALID,88.9163,VALID,0,VALID,24.5691,VALID,72,VALID,0,
2009-05-17, 00:28:04,VALID,1009.05,VALID,0,VALID,88.9239,VALID,0,VALID,24.5691,VALID,72,VALID,0,
2009-05-17, 00:29:04,VALID,1009.05,VALID,0,VALID,88.9315,VALID,0,VALID,24.5691,VALID,72,VALID,0,
2009-05-17, 00:30:04,VALID,1009.04,VALID,0,VALID,88.9315,VALID,0.105969,VALID,24.5496,VALID,72,VALID,0,
2009-05-17, 00:31:04,VALID,1009.05,VALID,0,VALID,88.9239,VALID,0,VALID,24.5301,VALID,72,VALID,0,
2009-05-17, 00:32:04,VALID,1009.03,VALID,0,VALID,88.9544,VALID,0,VALID,24.5301,VALID,72,VALID,0,
2009-05-17, 00:33:04,VALID,1009.03,VALID,0,VALID,88.9392,VALID,0,VALID,24.532,VALID,72,VALID,0,
2009-05-17, 00:34:04,VALID,1009.02,VALID,0,VALID,88.962,VALID,0,VALID,24.5125,VALID,72,VALID,0,
2009-05-17, 00:35:04,VALID,1009.01,VALID,0,VALID,88.9849,VALID,0,VALID,24.4911,VALID,72,VALID,0,
2009-05-17, 00:36:04,VALID,1009,VALID,0,VALID,89.0154,VALID,0,VALID,24.4911,VALID,72,VALID,0,
2009-05-17, 00:37:04,VALID,1009,VALID,0,VALID,89.0536,VALID,0.105969,VALID,24.5106,VALID,72,VALID,0,
2009-05-17, 00:38:04,VALID,1008.99,VALID,0,VALID,89.0307,VALID,0,VALID,24.532,VALID,72,VALID,0,
2009-05-17, 00:39:04,VALID,1008.99,VALID,0,VALID,89.0536,VALID,0,VALID,24.5106,VALID,72,VALID,0,
2009-05-17, 00:40:04,VALID,1008.97,VALID,0,VALID,89.0764,VALID,0,VALID,24.5301,VALID,73,VALID,0.958594,
2009-05-17, 00:41:04,VALID,1008.99,VALID,0,VALID,89.023,VALID,0,VALID,24.5301,VALID,61,VALID,0.566797,
2009-05-17, 00:42:04,VALID,1008.96,VALID,0,VALID,89.0154,VALID,0.105969,VALID,24.5301,VALID,61,VALID,0.519141,
2009-05-17, 00:43:04,VALID,1008.94,VALID,0,VALID,88.9849,VALID,0,VALID,24.5301,VALID,61,VALID,0.515234,
2009-05-17, 00:44:04,VALID,1008.93,VALID,0,VALID,88.962,VALID,0,VALID,24.5301,VALID,61,VALID,0.357422,
2009-05-17, 00:45:04,VALID,1008.92,VALID,0,VALID,88.9392,VALID,0,VALID,24.5301,VALID,70,VALID,0.528516,
2009-05-17, 00:46:04,VALID,1008.92,VALID,0,VALID,88.9087,VALID,0,VALID,24.5106,VALID,69,VALID,0.322656,
2009-05-17, 00:47:04,VALID,1008.94,VALID,0,VALID,88.9239,VALID,0.105969,VALID,24.5106,VALID,75,VALID,0.434375,
2009-05-17, 00:48:04,VALID,1008.9,VALID,0,VALID,88.8934,VALID,0.105969,VALID,24.4911,VALID,72,VALID,0.444531,
2009-05-17, 00:49:04,VALID,1008.89,VALID,0,VALID,88.9087,VALID,0,VALID,24.4911,VALID,72,VALID,0.196484,
2009-05-17, 00:50:04,VALID,1008.9,VALID,0,VALID,88.8705,VALID,0,VALID,24.4911,VALID,72,VALID,0.0140625,
2009-05-17, 00:51:04,VALID,1008.9,VALID,0,VALID,88.8629,VALID,0,VALID,24.4911,VALID,72,VALID,0,
2009-05-17, 00:52:04,VALID,1008.87,VALID,0,VALID,88.8629,VALID,0,VALID,24.4717,VALID,70,VALID,0,
2009-05-17, 00:53:04,VALID,1008.88,VALID,0,VALID,88.8477,VALID,0,VALID,24.4911,VALID,69,VALID,0,
2009-05-17, 00:54:04,VALID,1008.86,VALID,0,VALID,88.84,VALID,0,VALID,24.4911,VALID,69,VALID,0,
2009-05-17, 00:55:04,VALID,1008.86,VALID,0,VALID,88.8324,VALID,0,VALID,24.5125,VALID,69,VALID,0,
2009-05-17, 00:56:04,VALID,1008.82,VALID,0,VALID,88.7943,VALID,0,VALID,24.4911,VALID,69,VALID,0,
2009-05-17, 00:57:04,VALID,1008.78,VALID,0,VALID,88.8019,VALID,0,VALID,24.493,VALID,69,VALID,0,
2009-05-17, 00:58:04,VALID,1008.77,VALID,0,VALID,88.8095,VALID,0,VALID,24.4911,VALID,69,VALID,0,
2009-05-17, 00:59:04,VALID,1008.75,VALID,0,VALID,88.8019,VALID,0,VALID,24.4717,VALID,64,VALID,0,
2009-05-17, 01:00:04,VALID,1008.74,VALID,0,VALID,88.7943,VALID,0,VALID,24.5125,VALID,46,VALID,0,
2009-05-17, 01:01:04,VALID,1008.7,VALID,0,VALID,88.7561,VALID,0,VALID,24.4717,VALID,47,VALID,0,
2009-05-17, 01:02:04,VALID,1008.69,VALID,0,VALID,88.7561,VALID,0,VALID,24.5125,VALID,47,VALID,0,
2009-05-17, 01:03:04,VALID,1008.68,VALID,0,VALID,88.7409,VALID,0,VALID,24.4717,VALID,47,VALID,0,
2009-05-17, 01:04:04,VALID,1008.68,VALID,0,VALID,88.7256,VALID,0,VALID,24.4522,VALID,47,VALID,0,
2009-05-17, 01:05:04,VALID,1008.65,VALID,0,VALID,88.7333,VALID,0,VALID,24.4717,VALID,47,VALID,0,
2009-05-17, 01:06:04,VALID,1008.68,VALID,0,VALID,88.718,VALID,0,VALID,24.493,VALID,47,VALID,0,
2009-05-17, 01:07:04,VALID,1008.66,VALID,0,VALID,88.7028,VALID,0,VALID,24.4717,VALID,47,VALID,0,
2009-05-17, 01:08:04,VALID,1008.68,VALID,0,VALID,88.6875,VALID,0,VALID,24.493,VALID,47,VALID,0,
2009-05-17, 01:09:04,VALID,1008.66,VALID,0,VALID,88.6875,VALID,0,VALID,24.493,VALID,47,VALID,0,
2009-05-17, 01:10:04,VALID,1008.67,VALID,0,VALID,88.6646,VALID,0,VALID,24.4717,VALID,47,VALID,0,
2009-05-17, 01:11:04,VALID,1008.68,VALID,0,VALID,88.657,VALID,0.105969,VALID,24.4911,VALID,47,VALID,0,
2009-05-17, 01:12:04,VALID,1008.69,VALID,0,VALID,88.6418,VALID,0,VALID,24.4717,VALID,47,VALID,0,
2009-05-17, 01:13:04,VALID,1008.67,VALID,0,VALID,88.6265,VALID,0,VALID,24.4522,VALID,47,VALID,0,
2009-05-17, 01:14:04,VALID,1008.66,VALID,0,VALID,88.6341,VALID,0,VALID,24.4522,VALID,47,VALID,0,
2009-05-17, 01:15:04,VALID,1008.65,VALID,0,VALID,88.6418,VALID,0,VALID,24.454,VALID,47,VALID,0,
2009-05-17, 01:16:04,VALID,1008.65,VALID,0,VALID,88.6646,VALID,0,VALID,24.4327,VALID,47,VALID,0,
2009-05-17, 01:17:04,VALID,1008.64,VALID,0,VALID,88.6875,VALID,0,VALID,24.4327,VALID,47,VALID,0,
2009-05-17, 01:18:04,VALID,1008.65,VALID,0,VALID,88.6875,VALID,0,VALID,24.4345,VALID,47,VALID,0,
2009-05-17, 01:19:04,VALID,1008.65,VALID,0,VALID,88.7104,VALID,0,VALID,24.415,VALID,47,VALID,0,
2009-05-17, 01:20:04,VALID,1008.66,VALID,0,VALID,88.7409,VALID,0,VALID,24.3937,VALID,47,VALID,0,
2009-05-17, 01:21:04,VALID,1008.68,VALID,0,VALID,88.7714,VALID,0.105969,VALID,24.3937,VALID,47,VALID,0,
2009-05-17, 01:22:04,VALID,1008.67,VALID,0,VALID,88.8095,VALID,0,VALID,24.3742,VALID,47,VALID,0,
2009-05-17, 01:23:04,VALID,1008.64,VALID,0,VALID,88.8248,VALID,0,VALID,24.3937,VALID,47,VALID,0,
2009-05-17, 01:24:04,VALID,1008.66,VALID,0,VALID,88.8477,VALID,0.105969,VALID,24.4132,VALID,47,VALID,0,
2009-05-17, 01:25:04,VALID,1008.63,VALID,0,VALID,88.8553,VALID,0,VALID,24.415,VALID,47,VALID,0,
2009-05-17, 01:26:04,VALID,1008.66,VALID,0,VALID,88.8629,VALID,0,VALID,24.3937,VALID,29,VALID,0,
2009-05-17, 01:27:04,VALID,1008.64,VALID,0,VALID,88.8553,VALID,0,VALID,24.3937,VALID,18,VALID,0,
2009-05-17, 01:28:04,VALID,1008.66,VALID,0,VALID,88.8629,VALID,0,VALID,24.3937,VALID,18,VALID,0,
2009-05-17, 01:29:04,VALID,1008.68,VALID,0,VALID,88.8629,VALID,0,VALID,24.3937,VALID,18,VALID,0,
2009-05-17, 01:30:04,VALID,1008.62,VALID,0,VALID,88.8248,VALID,0,VALID,24.3742,VALID,19,VALID,0,
2009-05-17, 01:31:04,VALID,1008.65,VALID,0,VALID,88.8172,VALID,0,VALID,24.3566,VALID,19,VALID,0,
2009-05-17, 01:32:04,VALID,1008.64,VALID,0,VALID,88.8324,VALID,0,VALID,24.3566,VALID,19,VALID,0,
2009-05-17, 01:33:04,VALID,1008.6,VALID,0,VALID,88.84,VALID,0,VALID,24.3352,VALID,19,VALID,0,
2009-05-17, 01:34:04,VALID,1008.57,VALID,0,VALID,88.8705,VALID,0,VALID,24.3158,VALID,19,VALID,0,
2009-05-17, 01:35:04,VALID,1008.57,VALID,0,VALID,88.901,VALID,0,VALID,24.3176,VALID,19,VALID,0,
2009-05-17, 01:36:04,VALID,1008.56,VALID,0,VALID,88.9239,VALID,0,VALID,24.2963,VALID,19,VALID,0,
2009-05-17, 01:37:04,VALID,1008.52,VALID,0,VALID,88.9849,VALID,0,VALID,24.2963,VALID,19,VALID,0,
2009-05-17, 01:38:04,VALID,1008.57,VALID,0,VALID,89.0078,VALID,0,VALID,24.2768,VALID,19,VALID,0,
2009-05-17, 01:39:04,VALID,1008.54,VALID,0,VALID,89.0383,VALID,0,VALID,24.2981,VALID,19,VALID,0,
2009-05-17, 01:40:04,VALID,1008.54,VALID,0,VALID,89.0459,VALID,0.105969,VALID,24.2786,VALID,19,VALID,0,
2009-05-17, 01:41:04,VALID,1008.55,VALID,0,VALID,89.0841,VALID,0,VALID,24.2573,VALID,19,VALID,0,
2009-05-17, 01:42:04,VALID,1008.54,VALID,0,VALID,89.0993,VALID,0,VALID,24.2573,VALID,347,VALID,0,
2009-05-17, 01:43:04,VALID,1008.52,VALID,0,VALID,89.1374,VALID,0.105969,VALID,24.2591,VALID,347,VALID,0,
2009-05-17, 01:44:04,VALID,1008.53,VALID,0,VALID,89.1374,VALID,0,VALID,24.2378,VALID,359,VALID,0,
2009-05-17, 01:45:04,VALID,1008.51,VALID,0,VALID,89.1756,VALID,0,VALID,24.2378,VALID,360,VALID,0,
2009-05-17, 01:46:04,VALID,1008.52,VALID,0,VALID,89.1908,VALID,0.105969,VALID,24.2786,VALID,5,VALID,0,
2009-05-17, 01:47:04,VALID,1008.53,VALID,0,VALID,89.1984,VALID,0,VALID,24.2378,VALID,8,VALID,0,
2009-05-17, 01:48:04,VALID,1008.5,VALID,0,VALID,89.2061,VALID,0,VALID,24.2378,VALID,68,VALID,0,
2009-05-17, 01:49:04,VALID,1008.55,VALID,0,VALID,89.2213,VALID,0,VALID,24.2573,VALID,59,VALID,0,
2009-05-17, 01:50:04,VALID,1008.54,VALID,0,VALID,89.2671,VALID,0,VALID,24.2981,VALID,85,VALID,0,
2009-05-17, 01:51:04,VALID,1008.55,VALID,0,VALID,89.2289,VALID,0,VALID,24.2768,VALID,44,VALID,0,
2009-05-17, 01:52:04,VALID,1008.54,VALID,0,VALID,89.2137,VALID,0,VALID,24.2768,VALID,65,VALID,0,
2009-05-17, 01:53:04,VALID,1008.54,VALID,0,VALID,89.1984,VALID,0.105969,VALID,24.2768,VALID,65,VALID,0,
2009-05-17, 01:54:04,VALID,1008.52,VALID,0,VALID,89.1984,VALID,0.105969,VALID,24.2768,VALID,65,VALID,0,
2009-05-17, 01:55:04,VALID,1008.51,VALID,0,VALID,89.1679,VALID,0.105969,VALID,24.3176,VALID,42,VALID,0,
2009-05-17, 01:56:04,VALID,1008.51,VALID,0,VALID,89.1603,VALID,0,VALID,24.2981,VALID,45,VALID,0,
2009-05-17, 01:57:04,VALID,1008.5,VALID,0,VALID,89.1679,VALID,0,VALID,24.3176,VALID,45,VALID,0,
2009-05-17, 01:58:04,VALID,1008.48,VALID,0,VALID,89.1679,VALID,0,VALID,24.2768,VALID,45,VALID,0,
2009-05-17, 01:59:04,VALID,1008.46,VALID,0,VALID,89.1756,VALID,0,VALID,24.2768,VALID,45,VALID,0,
2009-05-17, 02:00:04,VALID,1008.47,VALID,0,VALID,89.1603,VALID,0,VALID,24.2963,VALID,45,VALID,0,
2009-05-17, 02:01:04,VALID,1008.48,VALID,0,VALID,89.1908,VALID,0,VALID,24.2963,VALID,45,VALID,0,
2009-05-17, 02:02:04,VALID,1008.49,VALID,0,VALID,89.1832,VALID,0,VALID,24.2963,VALID,5,VALID,0,
2009-05-17, 02:03:04,VALID,1008.49,VALID,0,VALID,89.1756,VALID,0.105969,VALID,24.2768,VALID,5,VALID,0,
2009-05-17, 02:04:04,VALID,1008.48,VALID,0,VALID,89.1679,VALID,0,VALID,24.2981,VALID,5,VALID,0,
2009-05-17, 02:05:04,VALID,1008.51,VALID,0,VALID,89.1679,VALID,0,VALID,24.2768,VALID,5,VALID,0,
2009-05-17, 02:06:04,VALID,1008.53,VALID,0,VALID,89.1756,VALID,0.105969,VALID,24.2768,VALID,5,VALID,0,
2009-05-17, 02:07:04,VALID,1008.57,VALID,0,VALID,89.1679,VALID,0.105969,VALID,24.2573,VALID,5,VALID,0,
2009-05-17, 02:08:04,VALID,1008.59,VALID,0,VALID,89.1756,VALID,0.105969,VALID,24.2768,VALID,24,VALID,0,
2009-05-17, 02:09:04,VALID,1008.6,VALID,0,VALID,89.1679,VALID,0,VALID,24.2573,VALID,51,VALID,0,
2009-05-17, 02:10:04,VALID,1008.62,VALID,0,VALID,89.1908,VALID,0.105969,VALID,24.2573,VALID,51,VALID,0,
2009-05-17, 02:11:04,VALID,1008.6,VALID,0,VALID,89.1756,VALID,0,VALID,24.2573,VALID,67,VALID,0,
2009-05-17, 02:12:04,VALID,1008.6,VALID,0,VALID,89.2061,VALID,0,VALID,24.2591,VALID,67,VALID,0,
2009-05-17, 02:13:04,VALID,1008.59,VALID,0,VALID,89.2137,VALID,0,VALID,24.2786,VALID,74,VALID,0,
2009-05-17, 02:14:04,VALID,1008.55,VALID,0,VALID,89.2213,VALID,0,VALID,24.2786,VALID,75,VALID,0,
2009-05-17, 02:15:04,VALID,1008.55,VALID,0,VALID,89.2366,VALID,0.105969,VALID,24.2768,VALID,73,VALID,0,
2009-05-17, 02:16:04,VALID,1008.54,VALID,0,VALID,89.2594,VALID,0,VALID,24.2555,VALID,85,VALID,0,
2009-05-17, 02:17:04,VALID,1008.5,VALID,0,VALID,89.2442,VALID,0.105969,VALID,24.2963,VALID,80,VALID,0,
2009-05-17, 02:18:04,VALID,1008.51,VALID,0,VALID,89.2442,VALID,0.105969,VALID,24.3158,VALID,63,VALID,0,
2009-05-17, 02:19:04,VALID,1008.53,VALID,0,VALID,89.2366,VALID,0,VALID,24.3371,VALID,24,VALID,0,
2009-05-17, 02:20:04,VALID,1008.54,VALID,0,VALID,89.2213,VALID,0,VALID,24.3158,VALID,25,VALID,0,
2009-05-17, 02:21:04,VALID,1008.55,VALID,0,VALID,89.2366,VALID,0.105969,VALID,24.3352,VALID,62,VALID,0,
2009-05-17, 02:22:04,VALID,1008.57,VALID,0,VALID,89.2442,VALID,0.105969,VALID,24.3352,VALID,70,VALID,0,
2009-05-17, 02:23:04,VALID,1008.57,VALID,0,VALID,89.1984,VALID,0.105969,VALID,24.3547,VALID,70,VALID,0,
2009-05-17, 02:24:04,VALID,1008.59,VALID,0,VALID,89.2061,VALID,0.105969,VALID,24.3547,VALID,70,VALID,0,
2009-05-17, 02:25:04,VALID,1008.6,VALID,0,VALID,89.1756,VALID,0.105969,VALID,24.3742,VALID,70,VALID,0,
2009-05-17, 02:26:04,VALID,1008.63,VALID,0,VALID,89.1832,VALID,0.105969,VALID,24.3742,VALID,54,VALID,0,
2009-05-17, 02:27:04,VALID,1008.64,VALID,0,VALID,89.1527,VALID,0.105969,VALID,24.3937,VALID,78,VALID,0,
2009-05-17, 02:28:04,VALID,1008.65,VALID,0,VALID,89.1603,VALID,0,VALID,24.4132,VALID,78,VALID,0,
2009-05-17, 02:29:04,VALID,1008.69,VALID,0,VALID,89.1298,VALID,0.105969,VALID,24.3937,VALID,78,VALID,0,
2009-05-17, 02:30:04,VALID,1008.68,VALID,0,VALID,89.1222,VALID,0.105969,VALID,24.4132,VALID,74,VALID,0,
2009-05-17, 02:31:04,VALID,1008.7,VALID,0,VALID,89.1146,VALID,0.105969,VALID,24.4132,VALID,74,VALID,0,
2009-05-17, 02:32:04,VALID,1008.72,VALID,0,VALID,89.0764,VALID,0,VALID,24.4327,VALID,74,VALID,0,
2009-05-17, 02:33:04,VALID,1008.73,VALID,0,VALID,89.0993,VALID,0,VALID,24.4327,VALID,74,VALID,0,
2009-05-17, 02:34:04,VALID,1008.75,VALID,0,VALID,89.0764,VALID,0.105969,VALID,24.4717,VALID,74,VALID,0,
2009-05-17, 02:35:04,VALID,1008.79,VALID,0,VALID,89.0993,VALID,0.105969,VALID,24.532,VALID,74,VALID,0,
2009-05-17, 02:36:04,VALID,1008.81,VALID,0,VALID,89.0841,VALID,0,VALID,24.5301,VALID,74,VALID,0,
2009-05-17, 02:37:04,VALID,1008.82,VALID,0,VALID,89.0536,VALID,0.105969,VALID,24.5301,VALID,74,VALID,0,
2009-05-17, 02:38:04,VALID,1008.82,VALID,0,VALID,89.0078,VALID,0,VALID,24.5691,VALID,74,VALID,0,
2009-05-17, 02:39:04,VALID,1008.84,VALID,0,VALID,89.0154,VALID,0,VALID,24.5496,VALID,74,VALID,0,
2009-05-17, 02:40:04,VALID,1008.85,VALID,0,VALID,88.962,VALID,0,VALID,24.5496,VALID,74,VALID,0,
2009-05-17, 02:41:04,VALID,1008.86,VALID,0,VALID,88.9163,VALID,0.105969,VALID,24.5301,VALID,74,VALID,0,
2009-05-17, 02:42:04,VALID,1008.82,VALID,0,VALID,88.8782,VALID,0.105969,VALID,24.5496,VALID,74,VALID,0,
2009-05-17, 02:43:04,VALID,1008.82,VALID,0,VALID,88.8477,VALID,0.105969,VALID,24.5496,VALID,74,VALID,0,
2009-05-17, 02:44:04,VALID,1008.83,VALID,0,VALID,88.8248,VALID,0.105969,VALID,24.5691,VALID,74,VALID,0,
2009-05-17, 02:45:04,VALID,1008.8,VALID,0,VALID,88.8095,VALID,0.105969,VALID,24.5691,VALID,74,VALID,0,
2009-05-17, 02:46:04,VALID,1008.79,VALID,0,VALID,88.7561,VALID,0.105969,VALID,24.5691,VALID,74,VALID,0,
2009-05-17, 02:47:04,VALID,1008.78,VALID,0,VALID,88.7104,VALID,0.105969,VALID,24.5886,VALID,74,VALID,0,
2009-05-17, 02:48:04,VALID,1008.78,VALID,0,VALID,88.6494,VALID,0.105969,VALID,24.5867,VALID,74,VALID,0,
2009-05-17, 02:49:04,VALID,1008.77,VALID,0,VALID,88.6341,VALID,0,VALID,24.6081,VALID,74,VALID,0,
2009-05-17, 02:50:04,VALID,1008.78,VALID,0,VALID,88.6113,VALID,0.105969,VALID,24.6276,VALID,74,VALID,0,
2009-05-17, 02:51:04,VALID,1008.79,VALID,0,VALID,88.6036,VALID,0,VALID,24.6276,VALID,74,VALID,0,
2009-05-17, 02:52:04,VALID,1008.81,VALID,0,VALID,88.5731,VALID,0.105969,VALID,24.6276,VALID,74,VALID,0,
2009-05-17, 02:53:04,VALID,1008.8,VALID,0,VALID,88.535,VALID,0.105969,VALID,24.6081,VALID,74,VALID,0,
2009-05-17, 02:54:04,VALID,1008.81,VALID,0,VALID,88.5045,VALID,0.105969,VALID,24.6081,VALID,74,VALID,0,
2009-05-17, 02:55:04,VALID,1008.83,VALID,0,VALID,88.4892,VALID,0.105969,VALID,24.5867,VALID,74,VALID,0,
2009-05-17, 02:56:04,VALID,1008.81,VALID,0,VALID,88.4816,VALID,0,VALID,24.5478,VALID,74,VALID,0,
2009-05-17, 02:57:04,VALID,1008.81,VALID,0,VALID,88.4664,VALID,0.105969,VALID,24.5886,VALID,74,VALID,0,
2009-05-17, 02:58:04,VALID,1008.8,VALID,0,VALID,88.5045,VALID,0.105969,VALID,24.5478,VALID,74,VALID,0,
2009-05-17, 02:59:04,VALID,1008.82,VALID,0,VALID,88.5197,VALID,0.105969,VALID,24.5496,VALID,74,VALID,0,
2009-05-17, 03:00:04,VALID,1008.79,VALID,0,VALID,88.5426,VALID,0.105969,VALID,24.5496,VALID,74,VALID,0,
2009-05-17, 03:01:04,VALID,1008.8,VALID,0,VALID,88.5807,VALID,0.105969,VALID,24.5691,VALID,74,VALID,0,
2009-05-17, 03:02:04,VALID,1008.76,VALID,0,VALID,88.6341,VALID,0,VALID,24.5691,VALID,74,VALID,0,
2009-05-17, 03:03:04,VALID,1008.76,VALID,0,VALID,88.6723,VALID,0.105969,VALID,24.5691,VALID,74,VALID,0,
2009-05-17, 03:04:04,VALID,1008.76,VALID,0,VALID,88.6875,VALID,0,VALID,24.5905,VALID,74,VALID,0,
2009-05-17, 03:05:04,VALID,1008.76,VALID,0,VALID,88.7333,VALID,0.105969,VALID,24.5886,VALID,74,VALID,0,
2009-05-17, 03:06:04,VALID,1008.75,VALID,0,VALID,88.718,VALID,0.105969,VALID,24.5886,VALID,74,VALID,0,
2009-05-17, 03:07:04,VALID,1008.75,VALID,0,VALID,88.718,VALID,0,VALID,24.5886,VALID,74,VALID,0,
2009-05-17, 03:08:04,VALID,1008.76,VALID,0,VALID,88.718,VALID,0,VALID,24.6081,VALID,74,VALID,0,
2009-05-17, 03:09:04,VALID,1008.8,VALID,0,VALID,88.7485,VALID,0.105969,VALID,24.6081,VALID,74,VALID,0,
2009-05-17, 03:10:04,VALID,1008.81,VALID,0,VALID,88.7333,VALID,0,VALID,24.5886,VALID,74,VALID,0,
2009-05-17, 03:11:04,VALID,1008.8,VALID,0,VALID,88.7561,VALID,0,VALID,24.6099,VALID,74,VALID,0,
2009-05-17, 03:12:04,VALID,1008.84,VALID,0,VALID,88.7485,VALID,0.105969,VALID,24.5886,VALID,74,VALID,0,
2009-05-17, 03:13:04,VALID,1008.85,VALID,0,VALID,88.7409,VALID,0,VALID,24.5886,VALID,74,VALID,0,
2009-05-17, 03:14:04,VALID,1008.88,VALID,0,VALID,88.7333,VALID,0.105969,VALID,24.6081,VALID,74,VALID,0,
2009-05-17, 03:15:04,VALID,1008.91,VALID,0,VALID,88.7409,VALID,0.105969,VALID,24.6294,VALID,74,VALID,0,
2009-05-17, 03:16:04,VALID,1008.9,VALID,0,VALID,88.7256,VALID,0.105969,VALID,24.6489,VALID,74,VALID,0,
2009-05-17, 03:17:04,VALID,1008.9,VALID,0,VALID,88.7485,VALID,0,VALID,24.6489,VALID,74,VALID,0,
2009-05-17, 03:18:04,VALID,1008.92,VALID,0,VALID,88.7333,VALID,0,VALID,24.6276,VALID,74,VALID,0,
2009-05-17, 03:19:04,VALID,1008.91,VALID,0,VALID,88.7028,VALID,0,VALID,24.6081,VALID,74,VALID,0,
2009-05-17, 03:20:04,VALID,1008.9,VALID,0,VALID,88.7028,VALID,0,VALID,24.6294,VALID,74,VALID,0,
2009-05-17, 03:21:04,VALID,1008.91,VALID,0,VALID,88.7028,VALID,0,VALID,24.6099,VALID,74,VALID,0,
2009-05-17, 03:22:04,VALID,1008.9,VALID,0,VALID,88.6875,VALID,0,VALID,24.6081,VALID,74,VALID,0,
2009-05-17, 03:23:04,VALID,1008.86,VALID,0,VALID,88.6875,VALID,0,VALID,24.6099,VALID,74,VALID,0,
2009-05-17, 03:24:04,VALID,1008.85,VALID,0,VALID,88.6799,VALID,0,VALID,24.5886,VALID,74,VALID,0,
2009-05-17, 03:25:04,VALID,1008.87,VALID,0,VALID,88.6723,VALID,0,VALID,24.6081,VALID,74,VALID,0,
2009-05-17, 03:26:04,VALID,1008.84,VALID,0,VALID,88.657,VALID,0,VALID,24.5886,VALID,74,VALID,0,
2009-05-17, 03:27:04,VALID,1008.82,VALID,0,VALID,88.6646,VALID,0,VALID,24.5886,VALID,74,VALID,0,
2009-05-17, 03:28:04,VALID,1008.83,VALID,0,VALID,88.6875,VALID,0,VALID,24.6081,VALID,74,VALID,0,
2009-05-17, 03:29:04,VALID,1008.83,VALID,0,VALID,88.6723,VALID,0,VALID,24.6081,VALID,74,VALID,0,
2009-05-17, 03:30:04,VALID,1008.85,VALID,0,VALID,88.6646,VALID,0,VALID,24.6276,VALID,74,VALID,0,
2009-05-17, 03:31:04,VALID,1008.85,VALID,0,VALID,88.6418,VALID,0,VALID,24.6276,VALID,74,VALID,0,
2009-05-17, 03:32:04,VALID,1008.87,VALID,0,VALID,88.6418,VALID,0,VALID,24.6276,VALID,74,VALID,0,
2009-05-17, 03:33:04,VALID,1008.89,VALID,0,VALID,88.6113,VALID,0,VALID,24.6489,VALID,74,VALID,0,
2009-05-17, 03:34:04,VALID,1008.9,VALID,0,VALID,88.5884,VALID,0.105969,VALID,24.6684,VALID,79,VALID,0,
2009-05-17, 03:35:04,VALID,1008.9,VALID,0,VALID,88.5731,VALID,0.105969,VALID,24.6471,VALID,80,VALID,0,
2009-05-17, 03:36:04,VALID,1008.93,VALID,0,VALID,88.535,VALID,0,VALID,24.6471,VALID,80,VALID,0,
2009-05-17, 03:37:04,VALID,1008.92,VALID,0,VALID,88.4969,VALID,0,VALID,24.6276,VALID,96,VALID,0.675,
2009-05-17, 03:38:04,VALID,1008.94,VALID,0,VALID,88.4206,VALID,0,VALID,24.6471,VALID,96,VALID,0.843359,
2009-05-17, 03:39:04,VALID,1008.95,VALID,0,VALID,88.3367,VALID,0.105969,VALID,24.6471,VALID,96,VALID,0.441797,
2009-05-17, 03:40:04,VALID,1008.96,VALID,0,VALID,88.2681,VALID,0.105969,VALID,24.6879,VALID,88,VALID,0.403125,
2009-05-17, 03:41:04,VALID,1008.95,VALID,0,VALID,88.23,VALID,0,VALID,24.686,VALID,88,VALID,0.33125,
2009-05-17, 03:42:04,VALID,1008.96,VALID,0,VALID,88.2223,VALID,0,VALID,24.686,VALID,88,VALID,0,
2009-05-17, 03:43:04,VALID,1008.96,VALID,0,VALID,88.169,VALID,0,VALID,24.6666,VALID,88,VALID,0.0960938,
2009-05-17, 03:44:04,VALID,1008.94,VALID,0,VALID,88.1308,VALID,0,VALID,24.6666,VALID,88,VALID,0,
2009-05-17, 03:45:04,VALID,1008.94,VALID,0,VALID,88.0775,VALID,0,VALID,24.6666,VALID,88,VALID,0,
2009-05-17, 03:46:04,VALID,1008.97,VALID,0,VALID,88.0775,VALID,0,VALID,24.6666,VALID,88,VALID,0,
2009-05-17, 03:47:04,VALID,1008.91,VALID,0,VALID,88.0317,VALID,0,VALID,24.686,VALID,88,VALID,0.00585938,
2009-05-17, 03:48:04,VALID,1008.9,VALID,0,VALID,88.0088,VALID,0,VALID,24.686,VALID,88,VALID,0,
2009-05-17, 03:49:04,VALID,1008.91,VALID,0,VALID,88.0622,VALID,0,VALID,24.6666,VALID,88,VALID,0,
2009-05-17, 03:50:04,VALID,1008.9,VALID,0,VALID,88.1308,VALID,0,VALID,24.686,VALID,88,VALID,0.121484,
2009-05-17, 03:51:04,VALID,1008.91,VALID,0,VALID,88.1537,VALID,0.105969,VALID,24.686,VALID,220,VALID,0.210938,
2009-05-17, 03:52:04,VALID,1008.91,VALID,0,VALID,88.1308,VALID,0,VALID,24.686,VALID,220,VALID,0.254297,
2009-05-17, 03:53:04,VALID,1008.92,VALID,0,VALID,88.1537,VALID,0,VALID,24.7055,VALID,220,VALID,0.375391,
2009-05-17, 03:54:04,VALID,1008.92,VALID,0,VALID,88.169,VALID,0,VALID,24.7074,VALID,220,VALID,0.296094,
2009-05-17, 03:55:04,VALID,1008.96,VALID,0,VALID,88.1537,VALID,0,VALID,24.686,VALID,220,VALID,0.285547,
2009-05-17, 03:56:04,VALID,1008.93,VALID,0,VALID,88.1613,VALID,0,VALID,24.686,VALID,220,VALID,0.00195313,